This is the latest recevied weather packets stored in our database for station/object EA3KZ-1. If no packets are shown the sender has not sent any weather packets the latest 10 day(s).
| Time | Temp. | Humidity | Pressure | Rain* | Wind** | Luminosity | Snow |
|---|---|---|---|---|---|---|---|
| 1777147838 | 16.67° C | 70% | 1014 hPa | 0 mm | - | - | - |
| 1777147235 | 16.67° C | 71% | 1014 hPa | 0 mm | - | - | - |
| 1777146632 | 17.22° C | 71% | 1013.8 hPa | 0 mm | - | - | - |
| 1777146029 | 17.22° C | 71% | 1013.8 hPa | 0 mm | - | - | - |
| 1777145427 | 17.78° C | 70% | 1013.6 hPa | 0 mm | - | - | - |
| 1777144824 | 17.78° C | 69% | 1013.5 hPa | 0 mm | - | - | - |
| 1777144222 | 18.33° C | 68% | 1013.5 hPa | 0 mm | - | - | - |
| 1777143619 | 18.33° C | 67% | 1013.3 hPa | 0 mm | - | - | - |
| 1777143016 | 18.33° C | 68% | 1013.3 hPa | 0 mm | - | - | - |
| 1777142474 | 18.33° C | 66% | 1013.2 hPa | 0 mm | - | - | - |
| 1777141871 | 18.89° C | 66% | 1013 hPa | 0 mm | - | - | - |
| 1777141269 | 18.89° C | 65% | 1013 hPa | 0 mm | - | - | - |
| 1777140666 | 18.89° C | 64% | 1012.9 hPa | 0 mm | - | - | - |
| 1777140064 | 18.89° C | 65% | 1013 hPa | 0 mm | - | - | - |
| 1777139461 | 19.44° C | 65% | 1012.9 hPa | 0 mm | - | - | - |
| 1777138858 | 19.44° C | 65% | 1013 hPa | 0 mm | - | - | - |
| 1777138256 | 19.44° C | 65% | 1013 hPa | 0 mm | - | - | - |
| 1777137653 | 19.44° C | 64% | 1013.1 hPa | 0 mm | - | - | - |
| 1777137051 | 19.44° C | 64% | 1013.1 hPa | 0 mm | - | - | - |
| 1777136448 | 20° C | 62% | 1013.1 hPa | 0 mm | - | - | - |
| 1777135845 | 20° C | 62% | 1013 hPa | 0 mm | - | - | - |
| 1777135243 | 19.44° C | 62% | 1013 hPa | 0 mm | - | - | - |
| 1777134640 | 19.44° C | 62% | 1013.1 hPa | 0 mm | - | - | - |
| 1777134037 | 20° C | 60% | 1013 hPa | 0 mm | - | - | - |
| 1777133435 | 21.11° C | 57% | 1012.9 hPa | 0 mm | - | - | - |
* Rain latest hour (hover to see other rain measurements)
** Current wind speed in m/s (hover to see current wind gust speed)